<?xml version="1.0" encoding="UTF-8" standalone="no" ?>
<gpx xmlns="http://www.topografix.com/GPX/1/1" xmlns:xsi="http://www.w3.org/2001/XMLSchema-instance" xsi:schemaLocation="http://www.topografix.com/GPX/1/1 http://www.topografix.com/GPX/1/1/gpx.xsd" version="1.1" creator="VisuGPX - https://www.visugpx.com">
  <metadata>
    <name>lundi 2016 01</name>
    <desc><![CDATA[cumul janvier 2016]]></desc>
  </metadata>
  <trk>
    <name><![CDATA[Lundi 2016 01 11]]></name>
    <extensions>
      <line xmlns="http://www.topografix.com/GPX/gpx_style/0/2">
        <color>000000</color>
      </line>
    </extensions>
    <trkseg>
      <trkpt lat="48.85727" lon="2.34717">
        <ele>40.599998474121</ele>
        <time>2016-01-11T19:20:31Z</time>
      </trkpt>
      <trkpt lat="48.85727" lon="2.34723">
        <ele>40.599998474121</ele>
        <time>2016-01-11T19:20:32Z</time>
      </trkpt>
      <trkpt lat="48.85728" lon="2.34716">
        <ele>40.599998474121</ele>
        <time>2016-01-11T19:20:36Z</time>
      </trkpt>
      <trkpt lat="48.8572" lon="2.34705">
        <ele>40.599998474121</ele>
        <time>2016-01-11T19:20:42Z</time>
      </trkpt>
      <trkpt lat="48.85702" lon="2.34691">
        <ele>40.79999923706</ele>
        <time>2016-01-11T19:20:50Z</time>
      </trkpt>
      <trkpt lat="48.85685" lon="2.34679">
        <ele>41.400001525879</ele>
        <time>2016-01-11T19:20:57Z</time>
      </trkpt>
      <trkpt lat="48.85668" lon="2.34666">
        <ele>42.79999923706</ele>
        <time>2016-01-11T19:21:04Z</time>
      </trkpt>
      <trkpt lat="48.85649" lon="2.34653">
        <ele>44.400001525879</ele>
        <time>2016-01-11T19:21:10Z</time>
      </trkpt>
      <trkpt lat="48.85632" lon="2.34644">
        <ele>45.79999923706</ele>
        <time>2016-01-11T19:21:15Z</time>
      </trkpt>
      <trkpt lat="48.85611" lon="2.34636">
        <ele>47.599998474121</ele>
        <time>2016-01-11T19:21:21Z</time>
      </trkpt>
      <trkpt lat="48.85592" lon="2.34628">
        <ele>47.79999923706</ele>
        <time>2016-01-11T19:21:25Z</time>
      </trkpt>
      <trkpt lat="48.85575" lon="2.34619">
        <ele>47.599998474121</ele>
        <time>2016-01-11T19:21:29Z</time>
      </trkpt>
      <trkpt lat="48.85555" lon="2.3461">
        <ele>47.400001525879</ele>
        <time>2016-01-11T19:21:34Z</time>
      </trkpt>
      <trkpt lat="48.85535" lon="2.34597">
        <ele>47</ele>
        <time>2016-01-11T19:21:39Z</time>
      </trkpt>
      <trkpt lat="48.85515" lon="2.3458">
        <ele>46.400001525879</ele>
        <time>2016-01-11T19:21:43Z</time>
      </trkpt>
      <trkpt lat="48.85497" lon="2.34563">
        <ele>45.20000076294</ele>
        <time>2016-01-11T19:21:47Z</time>
      </trkpt>
      <trkpt lat="48.85479" lon="2.34546">
        <ele>43.79999923706</ele>
        <time>2016-01-11T19:21:51Z</time>
      </trkpt>
      <trkpt lat="48.8546" lon="2.34529">
        <ele>42.599998474121</ele>
        <time>2016-01-11T19:21:55Z</time>
      </trkpt>
      <trkpt lat="48.85443" lon="2.34515">
        <ele>41.20000076294</ele>
        <time>2016-01-11T19:21:59Z</time>
      </trkpt>
      <trkpt lat="48.85435" lon="2.34503">
        <ele>41.20000076294</ele>
        <time>2016-01-11T19:22:01Z</time>
      </trkpt>
      <trkpt lat="48.85421" lon="2.3448">
        <ele>41.599998474121</ele>
        <time>2016-01-11T19:22:05Z</time>
      </trkpt>
      <trkpt lat="48.85418" lon="2.34475">
        <ele>41.79999923706</ele>
        <time>2016-01-11T19:22:06Z</time>
      </trkpt>
      <trkpt lat="48.85403" lon="2.34456">
        <ele>42.20000076294</ele>
        <time>2016-01-11T19:22:11Z</time>
      </trkpt>
      <trkpt lat="48.85398" lon="2.34451">
        <ele>42.20000076294</ele>
        <time>2016-01-11T19:22:13Z</time>
      </trkpt>
      <trkpt lat="48.85386" lon="2.34437">
        <ele>42.599998474121</ele>
        <time>2016-01-11T19:22:22Z</time>
      </trkpt>
      <trkpt lat="48.85385" lon="2.34413">
        <ele>42</ele>
        <time>2016-01-11T19:22:49Z</time>
      </trkpt>
      <trkpt lat="48.85397" lon="2.34386">
        <ele>42</ele>
        <time>2016-01-11T19:22:55Z</time>
      </trkpt>
      <trkpt lat="48.85411" lon="2.34361">
        <ele>41.599998474121</ele>
        <time>2016-01-11T19:22:59Z</time>
      </trkpt>
      <trkpt lat="48.85425" lon="2.34332">
        <ele>41.20000076294</ele>
        <time>2016-01-11T19:23:03Z</time>
      </trkpt>
      <trkpt lat="48.85431" lon="2.34317">
        <ele>40.79999923706</ele>
        <time>2016-01-11T19:23:05Z</time>
      </trkpt>
      <trkpt lat="48.85444" lon="2.34296">
        <ele>41.20000076294</ele>
        <time>2016-01-11T19:23:08Z</time>
      </trkpt>
      <trkpt lat="48.85458" lon="2.34267">
        <ele>42</ele>
        <time>2016-01-11T19:23:12Z</time>
      </trkpt>
      <trkpt lat="48.85465" lon="2.34253">
        <ele>41.79999923706</ele>
        <time>2016-01-11T19:23:14Z</time>
      </trkpt>
      <trkpt lat="48.85477" lon="2.34232">
        <ele>41.79999923706</ele>
        <time>2016-01-11T19:23:17Z</time>
      </trkpt>
      <trkpt lat="48.85482" lon="2.34225">
        <ele>41.79999923706</ele>
        <time>2016-01-11T19:23:18Z</time>
      </trkpt>
      <trkpt lat="48.85498" lon="2.34199">
        <ele>41</ele>
        <time>2016-01-11T19:23:22Z</time>
      </trkpt>
      <trkpt lat="48.85513" lon="2.34173">
        <ele>39.79999923706</ele>
        <time>2016-01-11T19:23:26Z</time>
      </trkpt>
      <trkpt lat="48.85518" lon="2.34165">
        <ele>39.400001525879</ele>
        <time>2016-01-11T19:23:28Z</time>
      </trkpt>
      <trkpt lat="48.85508" lon="2.34145">
        <ele>40.79999923706</ele>
        <time>2016-01-11T19:23:33Z</time>
      </trkpt>
      <trkpt lat="48.85506" lon="2.3414">
        <ele>41.20000076294</ele>
        <time>2016-01-11T19:23:34Z</time>
      </trkpt>
      <trkpt lat="48.85501" lon="2.34133">
        <ele>42</ele>
        <time>2016-01-11T19:23:36Z</time>
      </trkpt>
      <trkpt lat="48.85482" lon="2.34122">
        <ele>43.400001525879</ele>
        <time>2016-01-11T19:23:41Z</time>
      </trkpt>
      <trkpt lat="48.85462" lon="2.34109">
        <ele>45.400001525879</ele>
        <time>2016-01-11T19:23:46Z</time>
      </trkpt>
      <trkpt lat="48.85459" lon="2.34103">
        <ele>45.79999923706</ele>
        <time>2016-01-11T19:23:47Z</time>
      </trkpt>
      <trkpt lat="48.85442" lon="2.34088">
        <ele>47.599998474121</ele>
        <time>2016-01-11T19:23:52Z</time>
      </trkpt>
      <trkpt lat="48.85431" lon="2.34072">
        <ele>47.400001525879</ele>
        <time>2016-01-11T19:23:57Z</time>
      </trkpt>
      <trkpt lat="48.85438" lon="2.34051">
        <ele>47.599998474121</ele>
        <time>2016-01-11T19:24:03Z</time>
      </trkpt>
      <trkpt lat="48.85439" lon="2.34044">
        <ele>47.599998474121</ele>
        <time>2016-01-11T19:24:04Z</time>
      </trkpt>
      <trkpt lat="48.85448" lon="2.34019">
        <ele>46.79999923706</ele>
        <time>2016-01-11T19:24:10Z</time>
      </trkpt>
      <trkpt lat="48.8546" lon="2.33996">
        <ele>47.599998474121</ele>
        <time>2016-01-11T19:24:18Z</time>
      </trkpt>
      <trkpt lat="48.8547" lon="2.33971">
        <ele>47.79999923706</ele>
        <time>2016-01-11T19:24:31Z</time>
      </trkpt>
      <trkpt lat="48.8547" lon="2.3397">
        <ele>47.79999923706</ele>
        <time>2016-01-11T19:24:32Z</time>
      </trkpt>
      <trkpt lat="48.85472" lon="2.33962">
        <ele>47.79999923706</ele>
        <time>2016-01-11T19:24:36Z</time>
      </trkpt>
      <trkpt lat="48.85473" lon="2.33959">
        <ele>47.79999923706</ele>
        <time>2016-01-11T19:24:37Z</time>
      </trkpt>
      <trkpt lat="48.8548" lon="2.33936">
        <ele>47.599998474121</ele>
        <time>2016-01-11T19:24:44Z</time>
      </trkpt>
      <trkpt lat="48.85483" lon="2.33932">
        <ele>47.400001525879</ele>
        <time>2016-01-11T19:24:47Z</time>
      </trkpt>
      <trkpt lat="48.85499" lon="2.33921">
        <ele>47.20000076294</ele>
        <time>2016-01-11T19:24:57Z</time>
      </trkpt>
      <trkpt lat="48.85512" lon="2.3393">
        <ele>47.400001525879</ele>
        <time>2016-01-11T19:25:07Z</time>
      </trkpt>
      <trkpt lat="48.85524" lon="2.33903">
        <ele>47</ele>
        <time>2016-01-11T19:25:13Z</time>
      </trkpt>
      <trkpt lat="48.85538" lon="2.33884">
        <ele>47</ele>
        <time>2016-01-11T19:25:19Z</time>
      </trkpt>
      <trkpt lat="48.85536" lon="2.33884">
        <ele>47</ele>
        <time>2016-01-11T19:25:20Z</time>
      </trkpt>
      <trkpt lat="48.85541" lon="2.33893">
        <ele>47</ele>
        <time>2016-01-11T19:25:25Z</time>
      </trkpt>
      <trkpt lat="48.8556" lon="2.33907">
        <ele>47</ele>
        <time>2016-01-11T19:25:36Z</time>
      </trkpt>
      <trkpt lat="48.8558" lon="2.33917">
        <ele>47</ele>
        <time>2016-01-11T19:25:42Z</time>
      </trkpt>
      <trkpt lat="48.85592" lon="2.33937">
        <ele>47.20000076294</ele>
        <time>2016-01-11T19:25:47Z</time>
      </trkpt>
      <trkpt lat="48.856" lon="2.33964">
        <ele>47.599998474121</ele>
        <time>2016-01-11T19:25:54Z</time>
      </trkpt>
      <trkpt lat="48.85606" lon="2.33994">
        <ele>48</ele>
        <time>2016-01-11T19:26:03Z</time>
      </trkpt>
      <trkpt lat="48.85608" lon="2.34007">
        <ele>47.400001525879</ele>
        <time>2016-01-11T19:26:07Z</time>
      </trkpt>
      <trkpt lat="48.85612" lon="2.34008">
        <ele>47</ele>
        <time>2016-01-11T19:26:13Z</time>
      </trkpt>
      <trkpt lat="48.85627" lon="2.33991">
        <ele>44.20000076294</ele>
        <time>2016-01-11T19:26:20Z</time>
      </trkpt>
      <trkpt lat="48.8563" lon="2.33988">
        <ele>43.599998474121</ele>
        <time>2016-01-11T19:26:21Z</time>
      </trkpt>
      <trkpt lat="48.85628" lon="2.33959">
        <ele>43.599998474121</ele>
        <time>2016-01-11T19:26:27Z</time>
      </trkpt>
      <trkpt lat="48.85613" lon="2.33938">
        <ele>46</ele>
        <time>2016-01-11T19:26:33Z</time>
      </trkpt>
      <trkpt lat="48.85598" lon="2.33915">
        <ele>47</ele>
        <time>2016-01-11T19:26:38Z</time>
      </trkpt>
      <trkpt lat="48.85585" lon="2.3389">
        <ele>46.79999923706</ele>
        <time>2016-01-11T19:26:42Z</time>
      </trkpt>
      <trkpt lat="48.85572" lon="2.33866">
        <ele>46.20000076294</ele>
        <time>2016-01-11T19:26:46Z</time>
      </trkpt>
      <trkpt lat="48.85558" lon="2.33844">
        <ele>45.599998474121</ele>
        <time>2016-01-11T19:26:50Z</time>
      </trkpt>
      <trkpt lat="48.85544" lon="2.33825">
        <ele>45.599998474121</ele>
        <time>2016-01-11T19:26:54Z</time>
      </trkpt>
      <trkpt lat="48.85535" lon="2.338">
        <ele>46</ele>
        <time>2016-01-11T19:26:58Z</time>
      </trkpt>
      <trkpt lat="48.85525" lon="2.33772">
        <ele>46.20000076294</ele>
        <time>2016-01-11T19:27:03Z</time>
      </trkpt>
      <trkpt lat="48.85529" lon="2.33744">
        <ele>46</ele>
        <time>2016-01-11T19:27:08Z</time>
      </trkpt>
      <trkpt lat="48.85533" lon="2.33714">
        <ele>46.400001525879</ele>
        <time>2016-01-11T19:27:14Z</time>
      </trkpt>
      <trkpt lat="48.85524" lon="2.33691">
        <ele>46.599998474121</ele>
        <time>2016-01-11T19:27:21Z</time>
      </trkpt>
      <trkpt lat="48.85504" lon="2.33693">
        <ele>47.20000076294</ele>
        <time>2016-01-11T19:27:27Z</time>
      </trkpt>
      <trkpt lat="48.85486" lon="2.33677">
        <ele>47.79999923706</ele>
        <time>2016-01-11T19:27:34Z</time>
      </trkpt>
      <trkpt lat="48.85481" lon="2.33666">
        <ele>48</ele>
        <time>2016-01-11T19:27:36Z</time>
      </trkpt>
      <trkpt lat="48.85464" lon="2.33647">
        <ele>47.79999923706</ele>
        <time>2016-01-11T19:27:42Z</time>
      </trkpt>
      <trkpt lat="48.85456" lon="2.33641">
        <ele>47.79999923706</ele>
        <time>2016-01-11T19:27:44Z</time>
      </trkpt>
      <trkpt lat="48.85438" lon="2.3364">
        <ele>48.20000076294</ele>
        <time>2016-01-11T19:27:49Z</time>
      </trkpt>
      <trkpt lat="48.85419" lon="2.33636">
        <ele>49.400001525879</ele>
        <time>2016-01-11T19:27:55Z</time>
      </trkpt>
      <trkpt lat="48.85403" lon="2.33624">
        <ele>50.20000076294</ele>
        <time>2016-01-11T19:28:03Z</time>
      </trkpt>
      <trkpt lat="48.85406" lon="2.33591">
        <ele>48.79999923706</ele>
        <time>2016-01-11T19:28:07Z</time>
      </trkpt>
      <trkpt lat="48.85408" lon="2.33565">
        <ele>47.79999923706</ele>
        <time>2016-01-11T19:28:11Z</time>
      </trkpt>
      <trkpt lat="48.8541" lon="2.3353">
        <ele>47.400001525879</ele>
        <time>2016-01-11T19:28:17Z</time>
      </trkpt>
      <trkpt lat="48.85414" lon="2.33501">
        <ele>47.20000076294</ele>
        <time>2016-01-11T19:28:21Z</time>
      </trkpt>
      <trkpt lat="48.85423" lon="2.33473">
        <ele>45.79999923706</ele>
        <time>2016-01-11T19:28:25Z</time>
      </trkpt>
      <trkpt lat="48.85431" lon="2.33443">
        <ele>44.79999923706</ele>
        <time>2016-01-11T19:28:30Z</time>
      </trkpt>
      <trkpt lat="48.8544" lon="2.33416">
        <ele>44</ele>
        <time>2016-01-11T19:28:36Z</time>
      </trkpt>
      <trkpt lat="48.85444" lon="2.33385">
        <ele>44.79999923706</ele>
        <time>2016-01-11T19:28:42Z</time>
      </trkpt>
      <trkpt lat="48.85448" lon="2.33358">
        <ele>45.400001525879</ele>
        <time>2016-01-11T19:28:48Z</time>
      </trkpt>
      <trkpt lat="48.85458" lon="2.33334">
        <ele>45.79999923706</ele>
        <time>2016-01-11T19:28:57Z</time>
      </trkpt>
      <trkpt lat="48.85458" lon="2.33333">
        <ele>45.79999923706</ele>
        <time>2016-01-11T19:28:59Z</time>
      </trkpt>
      <trkpt lat="48.85464" lon="2.33322">
        <ele>46.20000076294</ele>
        <time>2016-01-11T19:29:04Z</time>
      </trkpt>
      <trkpt lat="48.85486" lon="2.33319">
        <ele>46</ele>
        <time>2016-01-11T19:29:11Z</time>
      </trkpt>
      <trkpt lat="48.85505" lon="2.33328">
        <ele>45.400001525879</ele>
        <time>2016-01-11T19:29:17Z</time>
      </trkpt>
      <trkpt lat="48.85523" lon="2.33331">
        <ele>45</ele>
        <time>2016-01-11T19:29:23Z</time>
      </trkpt>
      <trkpt lat="48.8554" lon="2.33343">
        <ele>45.20000076294</ele>
        <time>2016-01-11T19:29:29Z</time>
      </trkpt>
      <trkpt lat="48.85558" lon="2.33351">
        <ele>45.20000076294</ele>
        <time>2016-01-11T19:29:38Z</time>
      </trkpt>
      <trkpt lat="48.8556" lon="2.33349">
        <ele>45.20000076294</ele>
        <time>2016-01-11T19:29:40Z</time>
      </trkpt>
      <trkpt lat="48.85572" lon="2.33326">
        <ele>45.20000076294</ele>
        <time>2016-01-11T19:29:47Z</time>
      </trkpt>
      <trkpt lat="48.85581" lon="2.33299">
        <ele>46.79999923706</ele>
        <time>2016-01-11T19:29:52Z</time>
      </trkpt>
      <trkpt lat="48.85588" lon="2.3327">
        <ele>47.599998474121</ele>
        <time>2016-01-11T19:29:57Z</time>
      </trkpt>
      <trkpt lat="48.85598" lon="2.33245">
        <ele>48.400001525879</ele>
        <time>2016-01-11T19:30:01Z</time>
      </trkpt>
      <trkpt lat="48.8561" lon="2.33218">
        <ele>49</ele>
        <time>2016-01-11T19:30:06Z</time>
      </trkpt>
      <trkpt lat="48.85619" lon="2.33194">
        <ele>49.79999923706</ele>
        <time>2016-01-11T19:30:12Z</time>
      </trkpt>
      <trkpt lat="48.85623" lon="2.33185">
        <ele>50</ele>
        <time>2016-01-11T19:30:18Z</time>
      </trkpt>
      <trkpt lat="48.85623" lon="2.3318">
        <ele>50.20000076294</ele>
        <time>2016-01-11T19:30:25Z</time>
      </trkpt>
      <trkpt lat="48.85635" lon="2.33158">
        <ele>48.599998474121</ele>
        <time>2016-01-11T19:30:42Z</time>
      </trkpt>
      <trkpt lat="48.85644" lon="2.3313">
        <ele>46.599998474121</ele>
        <time>2016-01-11T19:30:50Z</time>
      </trkpt>
      <trkpt lat="48.8565" lon="2.33102">
        <ele>45.599998474121</ele>
        <time>2016-01-11T19:30:57Z</time>
      </trkpt>
      <trkpt lat="48.85662" lon="2.33078">
        <ele>45</ele>
        <time>2016-01-11T19:31:04Z</time>
      </trkpt>
      <trkpt lat="48.85672" lon="2.33056">
        <ele>44.599998474121</ele>
        <time>2016-01-11T19:31:11Z</time>
      </trkpt>
      <trkpt lat="48.85683" lon="2.33031">
        <ele>44.20000076294</ele>
        <time>2016-01-11T19:31:17Z</time>
      </trkpt>
      <trkpt lat="48.85691" lon="2.33002">
        <ele>44</ele>
        <time>2016-01-11T19:31:22Z</time>
      </trkpt>
      <trkpt lat="48.85699" lon="2.32977">
        <ele>43.79999923706</ele>
        <time>2016-01-11T19:31:26Z</time>
      </trkpt>
      <trkpt lat="48.85709" lon="2.32953">
        <ele>43.400001525879</ele>
        <time>2016-01-11T19:31:30Z</time>
      </trkpt>
      <trkpt lat="48.85717" lon="2.32926">
        <ele>43.20000076294</ele>
        <time>2016-01-11T19:31:35Z</time>
      </trkpt>
      <trkpt lat="48.85728" lon="2.32898">
        <ele>44.20000076294</ele>
        <time>2016-01-11T19:31:43Z</time>
      </trkpt>
      <trkpt lat="48.85738" lon="2.3287">
        <ele>45.400001525879</ele>
        <time>2016-01-11T19:31:48Z</time>
      </trkpt>
      <trkpt lat="48.85747" lon="2.32844">
        <ele>45.400001525879</ele>
        <time>2016-01-11T19:31:53Z</time>
      </trkpt>
      <trkpt lat="48.85757" lon="2.32824">
        <ele>45.20000076294</ele>
        <time>2016-01-11T19:31:59Z</time>
      </trkpt>
      <trkpt lat="48.85766" lon="2.32803">
        <ele>45</ele>
        <time>2016-01-11T19:32:11Z</time>
      </trkpt>
      <trkpt lat="48.85778" lon="2.3278">
        <ele>45</ele>
        <time>2016-01-11T19:32:18Z</time>
      </trkpt>
      <trkpt lat="48.85785" lon="2.32752">
        <ele>45.20000076294</ele>
        <time>2016-01-11T19:32:23Z</time>
      </trkpt>
      <trkpt lat="48.85794" lon="2.32724">
        <ele>45.20000076294</ele>
        <time>2016-01-11T19:32:28Z</time>
      </trkpt>
      <trkpt lat="48.85801" lon="2.32698">
        <ele>44.79999923706</ele>
        <time>2016-01-11T19:32:32Z</time>
      </trkpt>
      <trkpt lat="48.85813" lon="2.32669">
        <ele>44.20000076294</ele>
        <time>2016-01-11T19:32:37Z</time>
      </trkpt>
      <trkpt lat="48.85822" lon="2.32637">
        <ele>43</ele>
        <time>2016-01-11T19:32:42Z</time>
      </trkpt>
      <trkpt lat="48.85831" lon="2.32609">
        <ele>41.79999923706</ele>
        <time>2016-01-11T19:32:46Z</time>
      </trkpt>
      <trkpt lat="48.85843" lon="2.32582">
        <ele>40.79999923706</ele>
        <time>2016-01-11T19:32:51Z</time>
      </trkpt>
      <trkpt lat="48.85848" lon="2.32571">
        <ele>41</ele>
        <time>2016-01-11T19:32:53Z</time>
      </trkpt>
      <trkpt lat="48.85858" lon="2.32543">
        <ele>42</ele>
        <time>2016-01-11T19:32:58Z</time>
      </trkpt>
      <trkpt lat="48.85864" lon="2.32527">
        <ele>42.400001525879</ele>
        <time>2016-01-11T19:33:01Z</time>
      </trkpt>
      <trkpt lat="48.85872" lon="2.32506">
        <ele>43</ele>
        <time>2016-01-11T19:33:05Z</time>
      </trkpt>
      <trkpt lat="48.85877" lon="2.32494">
        <ele>42.79999923706</ele>
        <time>2016-01-11T19:33:08Z</time>
      </trkpt>
      <trkpt lat="48.85888" lon="2.32465">
        <ele>43.79999923706</ele>
        <time>2016-01-11T19:33:13Z</time>
      </trkpt>
      <trkpt lat="48.85898" lon="2.32435">
        <ele>44</ele>
        <time>2016-01-11T19:33:18Z</time>
      </trkpt>
      <trkpt lat="48.85909" lon="2.32409">
        <ele>43.400001525879</ele>
        <time>2016-01-11T19:33:22Z</time>
      </trkpt>
      <trkpt lat="48.85918" lon="2.32384">
        <ele>43</ele>
        <time>2016-01-11T19:33:26Z</time>
      </trkpt>
      <trkpt lat="48.85926" lon="2.32367">
        <ele>43.599998474121</ele>
        <time>2016-01-11T19:33:30Z</time>
      </trkpt>
      <trkpt lat="48.85934" lon="2.32341">
        <ele>44.599998474121</ele>
        <time>2016-01-11T19:33:36Z</time>
      </trkpt>
      <trkpt lat="48.85938" lon="2.32313">
        <ele>44.599998474121</ele>
        <time>2016-01-11T19:33:42Z</time>
      </trkpt>
      <trkpt lat="48.85941" lon="2.32309">
        <ele>44.400001525879</ele>
        <time>2016-01-11T19:33:43Z</time>
      </trkpt>
      <trkpt lat="48.85948" lon="2.32293">
        <ele>44.20000076294</ele>
        <time>2016-01-11T19:33:47Z</time>
      </trkpt>
      <trkpt lat="48.85956" lon="2.32268">
        <ele>43.400001525879</ele>
        <time>2016-01-11T19:33:53Z</time>
      </trkpt>
      <trkpt lat="48.85966" lon="2.3224">
        <ele>41.79999923706</ele>
        <time>2016-01-11T19:33:59Z</time>
      </trkpt>
      <trkpt lat="48.85978" lon="2.32215">
        <ele>39.400001525879</ele>
        <time>2016-01-11T19:34:04Z</time>
      </trkpt>
    </trkseg>
  </trk>
</gpx>